Location: Summit Observatory
(39.5293°N, 75.7290°W)
Time: 05:11:47
(UTC-04:00)

Amateur Radio Satellites - All Passes

Search period start: 02 September 2014 04:41
Search period end: 03 September 2014 04:41
Location: Summit Observatory, 39.5293°N, 75.7290°W

Satellite Date Start Highest point End Downlink Frequencies (MHz)
Time Altitude Azimuth
ITAMSAT 1 02 Sep 04:58:21 05:00:54 14° 299° (WNW) 05:03:28 435.822 SSB
SO-50 02 Sep 05:05:43 05:08:30 16° 318° (NW) 05:11:19 436.795 FM
UOSAT-12 02 Sep 05:08:51 05:13:24 67° 119° (ESE) 05:18:04 437.025 FM, 437.400 FM
Uribyol 2 02 Sep 05:08:59 05:10:04 11° 302° (WNW) 05:11:09 436.500 FM
TMSAT-1 02 Sep 05:19:03 05:23:19 25° 294° (WNW) 05:27:34 436.925 FM
Uosat F 02 Sep 05:19:04 05:24:03 67° 102° (ESE) 05:29:02 435.120 FM
RS-15 02 Sep 05:23:36 05:24:43 10° 95° (E) 05:25:51 29.354 - 29.394 USB, Beacon 29.352 USB
JAS-1B 02 Sep 05:24:48 05:28:13 15° 306° (NW) 05:31:26 435.800 - 435.900 CW/SSB
KITSAT 1 02 Sep 05:27:16 05:29:23 11° 19° (NNE) 05:31:29 435.175 FM
AO-7 02 Sep 05:32:51 05:41:11 77° 106° (ESE) 05:49:27 29.400 - 29.500 MHz
Saudisat 1A 02 Sep 05:34:28 05:35:35 11° 38° (NE) 05:36:41 436.775 MHz
OPAL 02 Sep 05:56:14 05:59:36 18° 266° (W) 06:03:02 ?
STRAND 1 02 Sep 06:04:26 06:08:30 25° 66° (ENE) 06:12:35 ?
Hamsat 02 Sep 06:23:25 06:27:16 30° 96° (E) 06:31:03 145.90 MHz
JAS-2 02 Sep 06:28:45 06:33:39 35° 98° (E) 06:38:54 435.800 - 435.900 CW/SSB, 435.910 FM
UOSAT-12 02 Sep 06:50:54 06:54:01 18° 317° (NW) 06:57:11 437.025 FM, 437.400 FM
Uosat F 02 Sep 06:59:35 07:02:16 15° 298° (WNW) 07:04:57 435.120 FM
SO-67 02 Sep 07:08:05 07:08:15 10° 91° (E) 07:08:24 435.3500 MHz FM
Saudisat 1A 02 Sep 07:11:32 07:15:57 73° 57° (ENE) 07:20:20 436.775 MHz
KITSAT 1 02 Sep 07:20:38 07:27:49 34° 46° (NE) 07:34:57 435.175 FM
RS-15 02 Sep 07:23:50 07:34:42 63° 114° (ESE) 07:45:21 29.354 - 29.394 USB, Beacon 29.352 USB
AO-7 02 Sep 07:26:53 07:33:08 25° 305° (NW) 07:39:23 29.400 - 29.500 MHz
STRAND 1 02 Sep 07:42:46 07:47:28 38° 262° (W) 07:52:13 ?
Hamsat 02 Sep 07:59:40 08:03:03 22° 292° (WNW) 08:06:23 145.90 MHz
JAS-2 02 Sep 08:14:13 08:18:39 28° 292° (WNW) 08:23:23 435.800 - 435.900 CW/SSB, 435.910 FM
SO-67 02 Sep 08:38:13 08:41:29 40° 286° (WNW) 08:44:44 435.3500 MHz FM
Saudisat 1A 02 Sep 08:53:55 08:54:54 11° 253° (WSW) 08:55:53 436.775 MHz
KITSAT 1 02 Sep 09:15:44 09:23:39 61° 247° (WSW) 09:31:30 435.175 FM
RS-15 02 Sep 09:37:24 09:47:33 41° 317° (NW) 09:57:43 29.354 - 29.394 USB, Beacon 29.352 USB
ISS 02 Sep 09:47:37 09:50:55 69° 140° (SE) 09:54:14 145.800 FM
UKube-1 02 Sep 09:57:45 10:01:35 30° 97° (E) 10:05:24 145.840 MHz, 145.915 MHz
Oscar 11 02 Sep 10:01:18 10:04:44 22° 94° (E) 10:08:08 145.825 FM, Beacon 2401.500 USB
HO-68 02 Sep 10:02:48 10:09:56 66° 103° (ESE) 10:17:02 435.675 MHz FM
FUNcube-1 02 Sep 10:34:23 10:37:54 21° 94° (E) 10:41:25 145.950 - 145.970 MHz USB
ISS 02 Sep 11:25:25 11:27:56 20° 337° (NNW) 11:30:28 145.800 FM
PANSAT 02 Sep 11:31:48 11:33:53 14° 172° (S) 11:35:58 not established
UKube-1 02 Sep 11:34:12 11:37:37 23° 293° (WNW) 11:41:02 145.840 MHz, 145.915 MHz
Oscar 11 02 Sep 11:37:05 11:40:55 31° 290° (WNW) 11:44:44 145.825 FM, Beacon 2401.500 USB
HO-68 02 Sep 11:51:34 11:57:02 24° 301° (WNW) 12:02:30 435.675 MHz FM
SO-50 02 Sep 11:55:22 12:00:02 50° 54° (NE) 12:04:45 436.795 FM
RS-15 02 Sep 11:57:11 12:04:10 18° 350° (N) 12:11:13 29.354 - 29.394 USB, Beacon 29.352 USB
FUNcube-1 02 Sep 12:10:11 12:14:20 35° 289° (WNW) 12:18:31 145.950 - 145.970 MHz USB
Oscar 19 02 Sep 12:19:29 12:21:37 13° 60° (ENE) 12:23:46 437.125 CW, 437.150 USB
JAS-1B 02 Sep 12:27:05 12:32:18 17° 55° (NE) 12:37:10 435.800 - 435.900 CW/SSB
Oscar 16 02 Sep 12:52:22 12:56:37 27° 66° (ENE) 13:00:54 437.025 USB, Beacon 2401.1428
MaSat-1 02 Sep 12:54:57 12:59:50 79° 113° (ESE) 13:05:01 437.345 MHz
ITAMSAT 1 02 Sep 12:58:11 13:00:25 13° 60° (ENE) 13:02:39 435.822 SSB
ISS 02 Sep 13:05:02 13:05:42 10° 358° (N) 13:06:22 145.800 FM
Uribyol 2 02 Sep 13:06:21 13:09:30 17° 62° (ENE) 13:12:39 436.500 FM
PANSAT 02 Sep 13:11:04 13:13:23 15° 185° (S) 13:15:41 not established
AO-27 02 Sep 13:25:50 13:29:54 24° 65° (ENE) 13:33:59 436.795 MHz FM
SO-50 02 Sep 13:36:53 13:40:15 19° 250° (WSW) 13:43:37 436.795 FM
UOSAT-12 02 Sep 13:39:26 13:43:58 44° 53° (NE) 13:48:26 437.025 FM, 437.400 FM
Oscar 19 02 Sep 13:55:03 14:00:13 82° 257° (WSW) 14:05:27 437.125 CW, 437.150 USB
AO-Echo 02 Sep 14:00:01 14:04:52 53° 73° (ENE) 14:09:36 ?
Gurwin Techsat 1B 02 Sep 14:09:45 14:14:11 28° 67° (ENE) 14:18:37 435.225 FM
JAS-1B 02 Sep 14:11:54 14:21:34 71° 72° (ENE) 14:30:10 435.800 - 435.900 CW/SSB
RS-15 02 Sep 14:13:39 14:22:12 25° 27° (NNE) 14:30:53 29.354 - 29.394 USB, Beacon 29.352 USB
Oscar 16 02 Sep 14:31:04 14:35:47 36° 263° (W) 14:40:33 437.025 USB, Beacon 2401.1428
ITAMSAT 1 02 Sep 14:34:02 14:39:12 80° 257° (WSW) 14:44:24 435.822 SSB
MaSat-1 02 Sep 14:34:26 14:37:29 16° 311° (NW) 14:40:35 437.345 MHz
AO-7 02 Sep 14:41:19 14:47:05 21° 53° (NE) 14:52:50 29.400 - 29.500 MHz
ISS 02 Sep 14:41:26 14:43:33 16° 18° (NNE) 14:45:41 145.800 FM
Uribyol 2 02 Sep 14:43:21 14:48:26 61° 259° (WSW) 14:53:34 436.500 FM
TMSAT-1 02 Sep 14:58:29 15:03:38 57° 72° (ENE) 15:08:49 436.925 FM
AO-27 02 Sep 15:04:19 15:09:10 40° 261° (W) 15:14:02 436.795 MHz FM
Sapphire 02 Sep 15:10:08 15:11:27 11° 102° (ESE) 15:12:47 437.095 MHz 1200 baud AX-25 AFSK
UOSAT-12 02 Sep 15:20:20 15:23:48 21° 250° (WSW) 15:27:13 437.025 FM, 437.400 FM
PCSat 02 Sep 15:36:06 15:40:14 23° 107° (ESE) 15:44:23 145.825 MHz
AO-Echo 02 Sep 15:40:50 15:43:54 16° 267° (W) 15:46:56 ?
Gurwin Techsat 1B 02 Sep 15:49:08 15:53:59 36° 263° (W) 15:58:51 435.225 FM
JAS-1B 02 Sep 16:04:26 16:12:22 28° 266° (W) 16:19:45 435.800 - 435.900 CW/SSB
ISS 02 Sep 16:17:27 16:20:47 70° 37° (NE) 16:24:05 145.800 FM
RS-15 02 Sep 16:25:57 16:37:02 70° 55° (NE) 16:48:32 29.354 - 29.394 USB, Beacon 29.352 USB
OPAL 02 Sep 16:27:55 16:30:48 15° 93° (E) 16:33:39 ?
AO-7 02 Sep 16:30:27 16:38:49 89° 252° (WSW) 16:47:11 29.400 - 29.500 MHz
Uosat F 02 Sep 16:31:23 16:36:24 84° 75° (ENE) 16:41:25 435.120 FM
TMSAT-1 02 Sep 16:40:33 16:43:54 17° 268° (W) 16:47:16 436.925 FM
JAS-2 02 Sep 16:43:10 16:46:01 14° 62° (ENE) 16:48:45 435.800 - 435.900 CW/SSB, 435.910 FM
Sapphire 02 Sep 16:48:38 16:54:02 89° 296° (WNW) 16:59:29 437.095 MHz 1200 baud AX-25 AFSK
Hamsat 02 Sep 17:16:23 17:19:36 21° 67° (ENE) 17:22:51 145.90 MHz
PCSat 02 Sep 17:18:05 17:23:17 48° 303° (WNW) 17:28:33 145.825 MHz
ISS 02 Sep 17:55:48 17:57:05 12° 232° (SW) 17:58:22 145.800 FM
OPAL 02 Sep 18:04:54 18:10:05 65° 289° (WNW) 18:15:13 ?
JAS-2 02 Sep 18:24:29 18:30:35 79° 257° (WSW) 18:36:05 435.800 - 435.900 CW/SSB, 435.910 FM
AO-7 02 Sep 18:27:40 18:32:34 17° 269° (W) 18:37:30 29.400 - 29.500 MHz
Sapphire 02 Sep 18:35:09 18:38:15 15° 317° (NW) 18:41:21 437.095 MHz 1200 baud AX-25 AFSK
RS-15 02 Sep 18:39:14 18:48:34 33° 255° (WSW) 18:58:16 29.354 - 29.394 USB, Beacon 29.352 USB
Hamsat 02 Sep 18:51:25 18:55:20 33° 263° (W) 18:59:18 145.90 MHz
SO-67 02 Sep 19:09:59 19:13:20 50° 75° (ENE) 19:16:43 435.3500 MHz FM
STRAND 1 02 Sep 19:53:44 19:58:52 78° 103° (ESE) 20:03:58 ?
HO-68 02 Sep 20:30:19 20:37:00 45° 66° (ENE) 20:43:42 435.675 MHz FM
UKube-1 02 Sep 20:52:45 20:56:16 24° 68° (ENE) 20:59:46 145.840 MHz, 145.915 MHz
Oscar 11 02 Sep 20:56:18 20:59:04 17° 66° (ENE) 21:01:50 145.825 FM, Beacon 2401.500 USB
MaSat-1 02 Sep 21:14:55 21:17:34 15° 48° (NE) 21:20:00 437.345 MHz
Saudisat 1A 02 Sep 21:17:58 21:21:25 23° 112° (ESE) 21:24:54 436.775 MHz
FUNcube-1 02 Sep 21:31:16 21:33:40 15° 65° (ENE) 21:36:05 145.950 - 145.970 MHz USB
STRAND 1 02 Sep 21:35:07 21:37:23 13° 300° (WNW) 21:39:39 ?
KITSAT 1 02 Sep 21:49:51 21:55:40 22° 103° (ESE) 22:01:28 435.175 FM
HO-68 02 Sep 22:18:29 22:24:47 34° 263° (W) 22:31:08 435.675 MHz FM
UKube-1 02 Sep 22:28:36 22:32:20 28° 263° (W) 22:36:06 145.840 MHz, 145.915 MHz
Oscar 11 02 Sep 22:30:46 22:34:53 43° 261° (W) 22:39:03 145.825 FM, Beacon 2401.500 USB
MaSat-1 02 Sep 22:50:44 22:55:04 55° 250° (WSW) 22:58:45 437.345 MHz
Saudisat 1A 02 Sep 22:56:44 23:00:48 36° 308° (NW) 23:04:53 436.775 MHz
FUNcube-1 02 Sep 23:05:38 23:09:39 46° 261° (W) 23:13:46 145.950 - 145.970 MHz USB
KITSAT 1 02 Sep 23:42:06 23:50:12 76° 301° (WNW) 23:58:20 435.175 FM
Sapphire 02 Sep 23:57:01 23:58:23 11° 38° (NE) 23:59:45 437.095 MHz 1200 baud AX-25 AFSK
PCSat 03 Sep 00:24:25 00:28:08 18° 45° (NE) 00:31:50 145.825 MHz
Sapphire 03 Sep 01:37:35 01:42:58 60° 59° (ENE) 01:48:19 437.095 MHz 1200 baud AX-25 AFSK
KITSAT 1 03 Sep 01:41:15 01:47:01 21° 324° (NW) 01:52:49 435.175 FM
JAS-1B 03 Sep 02:02:50 02:06:05 14° 87° (E) 02:09:10 435.800 - 435.900 CW/SSB
PCSat 03 Sep 02:06:42 02:12:07 73° 244° (WSW) 02:17:30 145.825 MHz
Oscar 19 03 Sep 02:07:53 02:12:43 38° 98° (E) 02:17:30 437.125 CW, 437.150 USB
AO-Echo 03 Sep 02:09:13 02:12:14 17° 93° (E) 02:15:16 ?
SO-50 03 Sep 02:10:58 02:14:04 19° 110° (ESE) 02:17:13 436.795 FM
Gurwin Techsat 1B 03 Sep 02:29:08 02:30:26 11° 89° (E) 02:31:44 435.225 FM
Oscar 16 03 Sep 02:43:08 02:48:22 86° 104° (ESE) 02:53:33 437.025 USB, Beacon 2401.1428
ITAMSAT 1 03 Sep 02:48:03 02:52:54 39° 98° (E) 02:57:44 435.822 SSB
Uribyol 2 03 Sep 02:56:58 03:02:02 51° 100° (E) 03:07:05 436.500 FM
TMSAT-1 03 Sep 03:15:52 03:20:07 24° 94° (E) 03:24:21 436.925 FM
AO-27 03 Sep 03:17:49 03:23:01 78° 103° (ESE) 03:28:13 436.795 MHz FM
Sapphire 03 Sep 03:22:20 03:25:52 18° 255° (WSW) 03:29:23 437.095 MHz 1200 baud AX-25 AFSK
OPAL 03 Sep 03:41:25 03:45:30 25° 63° (ENE) 03:49:38 ?
AO-Echo 03 Sep 03:46:45 03:51:14 46° 288° (WNW) 03:55:46 ?
Oscar 19 03 Sep 03:47:38 03:51:50 26° 294° (WNW) 03:56:02 437.125 CW, 437.150 USB
SO-50 03 Sep 03:49:58 03:54:15 45° 307° (NW) 03:58:39 436.795 FM
JAS-1B 03 Sep 03:51:11 03:57:41 70° 288° (WNW) 04:03:24 435.800 - 435.900 CW/SSB
UOSAT-12 03 Sep 03:51:31 03:54:17 16° 109° (ESE) 03:57:06 437.025 FM, 437.400 FM
Gurwin Techsat 1B 03 Sep 04:05:41 04:11:01 84° 284° (WNW) 04:16:19 435.225 FM
Oscar 16 03 Sep 04:25:02 04:26:57 12° 300° (WNW) 04:28:51 437.025 USB, Beacon 2401.1428
ITAMSAT 1 03 Sep 04:28:01 04:32:10 25° 294° (WNW) 04:36:19 435.822 SSB
